Location: Fontevrault
(47.1823°N, 0.0493°E)
Time: 18:46:33
(UTC+00:00)

Cosmos 1459 Rocket - Pass Details

Date: 24 October 2021
Orbit: 936 x 1000 km, 83.0° (Epoch: 27 November)

Event Time Altitude Azimuth Distance (km) Brightness Sun altitude
Rises 04:43:53 0° 3° (N) 3,612 7.1 -18.8°
Reaches altitude 10° 04:47:42 10° 27° (NNE) 2,659 6.7 -18.2°
Maximum altitude 04:50:56 15° 60° (ENE) 2,331 6.8 -17.6°
Drops below altitude 10° 04:54:11 10° 93° (E) 2,652 7.6 -17.1°
Sets 04:57:57 0° 116° (ESE) 3,596 8.1 -16.4°
